This demonstration page uses our WeatherBlox Daily Observations layout. Learn more.

Left ArrowRight Arrow

39.08367, -84.50855

Hourly Observations for January 1, 2015

Temp ( °F °C ) Dew Point ( °F °C ) Humidity (%) Winds ( mph kmh ) Pressure ( in mb ) Visibility ( mi km ) Precip ( " mm )
12:53 am 00:53 Clear 22 -5.6 6 -14.4 50 50 WSW 10 17 30.35 1028 10 16.0934 0 0
1:53 am 01:53 Clear 22 -5.6 6 -14.4 50 50 SW 9 15 30.35 1028 10 16.0934 0 0
2:53 am 02:53 Clear 21 -6.1 7 -13.9 54 54 SW 10 17 30.35 1028 10 16.0934 0 0
3:53 am 03:53 Clear 19 -7.2 8 -13.3 62 62 SSW 8 13 30.32 1027 10 16.0934 0 0
4:53 am 04:53 Clear 18 -7.8 9 -12.8 68 68 S 6 9 30.31 1026 10 16.0934 0 0
5:53 am 05:53 Clear 18 -7.8 10 -12.2 71 71 S 9 15 30.31 1026 10 16.0934 0 0
6:53 am 06:53 Clear 20 -6.7 10 -12.2 65 65 SSW 9 15 30.3 1026 10 16.0934 0 0
7:53 am 07:53 Clear 21 -6.1 11 -11.7 65 65 SSW 10 17 30.29 1026 10 16.0934 0 0
8:53 am 08:53 Sunny 23 -5 12 -11.1 63 63 S 12 19 30.29 1026 10 16.0934 0 0
9:53 am 09:53 Sunny 27 -2.8 12 -11.1 53 53 SSW 14 22 30.28 1026 10 16.0934 0 0
10:53 am 10:53 Sunny 31 -0.6 13 -10.6 47 47 SW 16 26 30.27 1025 10 16.0934 0 0
11:53 am 11:53 Sunny 34 1.1 11 -11.7 38 38 SW 14 22 30.22 1024 10 16.0934 0 0
12:53 pm 12:53 Sunny 36 2.2 11 -11.7 35 35 SW 21 33 30.19 1022 10 16.0934 0 0
1:53 pm 13:53 Sunny 38 3.3 14 -10 37 37 SW 20 31 30.16 1022 10 16.0934 0 0
2:53 pm 14:53 Sunny 38 3.3 16 -8.9 41 41 SW 15 24 30.15 1021 10 16.0934 0 0
3:53 pm 15:53 Sunny 38 3.3 17 -8.3 43 43 SSW 14 22 30.14 1021 10 16.0934 0 0
4:53 pm 16:53 Sunny 35 1.7 18 -7.8 50 50 SW 15 24 30.16 1021 10 16.0934 0 0
5:53 pm 17:53 Clear 33 0.6 19 -7.2 56 56 SW 10 17 30.18 1022 10 16.0934 0 0
6:53 pm 18:53 Clear 19 -7 5 -15 53 53 SSW 6 9 30.45 1031 10 16.0934 0 0
7:53 pm 19:53 Clear 34 1.1 21 -6.1 59 59 SW 10 17 30.22 1023 10 16.0934 0 0
8:53 pm 20:53 Clear 33 0.6 21 -6.1 61 61 SW 8 13 30.22 1024 10 16.0934 0 0
9:53 pm 21:53 Clear 31 -0.6 21 -6.1 67 67 SW 6 9 30.24 1024 10 16.0934 0 0
10:53 pm 22:53 Clear 32 0 22 -5.6 66 66 SW 7 11 30.26 1025 10 16.0934 0 0
11:53 pm 23:53 Mostly Clear 30 -1.1 22 -5.6 72 72 SSW 5 7 30.26 1025 10 16.0934 0 0

Powered by AerisWeather